Kirksville, MO

9:00 PM CDT on August 23, 2017 (GMT -0500)
Kirksville Regional

Weather History for KIRK - November, 2011

Change the Weather History Date:

Sunday, November 13, 2011

  Actual Average Record
Temperature  
Mean Temperature 55 °F 42 °F  
Max Temperature 69 °F 52 °F 76 °F (1958)
Min Temperature 40 °F 32 °F 1 °F (1986)
Degree Days  
Heating Degree Days 10 23  
Month to date heating degree days 230 265  
Since 1 July heating degree days 704 754  
Cooling Degree Days 0 0  
Month to date cooling degree days 0 0  
Year to date cooling degree days 1197 939  
Growing Degree Days 7 (Base 50)    
Moisture  
Dew Point 38 °F    
Average Humidity 56    
Maximum Humidity 89    
Minimum Humidity 23    
Precipitation  
Precipitation 0.00 in 0.08 in 1.17 in (1922)
Month to date precipitation 4.49 1.42  
Year to date precipitation 33.92 36.26  
Sea Level Pressure  
Sea Level Pressure 29.50 in    
Wind  
Wind Speed 12 mph (SW)    
Max Wind Speed 28 mph    
Max Gust Speed 39 mph    
Visibility 10 miles    
Events      
T = Trace of Precipitation, MM = Missing Value Source: NWS Daily Summary

Daily Weather History Graph

Daily Weather History Graph

Search for Another Location

Airport or City:

Trip Planner

Search our weather history database for the weather conditions in past years. The results will help you decide how hot, cold, wet, or windy it might be!

Date:

Astronomy

Nov. 13, 2011 Rise Set
Actual Time 6:52 AM CST 4:55 PM CST
Civil Twilight 6:24 AM CST 5:24 PM CST
Nautical Twilight 5:51 AM CST 5:56 PM CST
Astronomical Twilight 5:19 AM CST 6:28 PM CST
Moon 7:04 PM CST (11/13) 9:26 AM CST (11/13)
Length of Visible Light 11h 00m
Length of Day
10h 02m
Waning Gibbous, 92% of the Moon is Illuminated
Nov 13
Waning Gibbous
Nov 18
Last Quarter
Nov 25
New
Dec 2
First Quarter
Dec 10
Full

Hourly Weather History & Observations

Time (CST) Temp. Windchill Dew Point Humidity Pressure Visibility Wind Dir Wind Speed Gust Speed Precip Events Conditions
12:55 AM 53.1 °F - 46.9 °F 80% 29.49 in 10.0 mi SSW 12.7 mph - N/A   Clear
1:55 AM 53.6 °F - 48.2 °F 82% 29.46 in 10.0 mi SSW 10.4 mph - N/A   Clear
2:55 AM 52.0 °F - 48.0 °F 86% 29.43 in 10.0 mi South 11.5 mph - N/A   Clear
3:55 AM 51.1 °F - 48.0 °F 89% 29.39 in 10.0 mi SSE 12.7 mph - N/A   Clear
4:55 AM 54.0 °F - 48.9 °F 83% 29.37 in 10.0 mi South 11.5 mph - N/A   Clear
5:55 AM 57.2 °F - 50.0 °F 77% 29.37 in 10.0 mi SSW 13.8 mph 26.5 mph N/A   Clear
6:55 AM 57.9 °F - 48.9 °F 72% 29.37 in 10.0 mi SW 17.3 mph 28.8 mph N/A   Clear
7:55 AM 60.1 °F - 46.0 °F 60% 29.40 in 10.0 mi SW 17.3 mph 27.6 mph N/A   Clear
8:55 AM 61.0 °F - 42.1 °F 50% 29.42 in 10.0 mi WSW 17.3 mph 28.8 mph N/A   Clear
9:55 AM 62.1 °F - 39.0 °F 43% 29.44 in 10.0 mi WSW 17.3 mph 27.6 mph N/A   Clear
10:55 AM 66.0 °F - 37.9 °F 36% 29.45 in 10.0 mi SW 20.7 mph 27.6 mph N/A   Clear
11:55 AM 69.1 °F - 34.0 °F 27% 29.44 in 10.0 mi WSW 16.1 mph 34.5 mph N/A   Clear
12:55 PM 69.1 °F - 30.9 °F 24% 29.46 in 10.0 mi WSW 21.9 mph 34.5 mph N/A   Clear
1:55 PM 68.0 °F - 30.0 °F 24% 29.47 in 10.0 mi West 13.8 mph 23.0 mph N/A   Clear
2:55 PM 66.9 °F - 28.0 °F 23% 29.50 in 10.0 mi West 21.9 mph 33.4 mph N/A   Clear
3:55 PM 64.0 °F - 30.0 °F 28% 29.54 in 10.0 mi West 17.3 mph 24.2 mph N/A   Clear
4:55 PM 60.1 °F - 30.9 °F 33% 29.57 in 10.0 mi WSW 8.1 mph - N/A   Clear
5:55 PM 55.9 °F - 30.9 °F 39% 29.60 in 10.0 mi WSW 5.8 mph - N/A   Clear
6:55 PM 55.0 °F - 32.0 °F 42% 29.61 in 10.0 mi West 6.9 mph - N/A   Clear
7:55 PM 52.0 °F - 33.1 °F 49% 29.63 in 10.0 mi West 8.1 mph - N/A   Clear
8:55 PM 50.0 °F - 33.1 °F 52% 29.66 in 10.0 mi WNW 3.5 mph - N/A   Clear
9:55 PM 45.0 °F - 33.1 °F 63% 29.65 in 10.0 mi Calm Calm - N/A   Clear
10:55 PM 46.0 °F - 33.1 °F 61% 29.64 in 10.0 mi Calm Calm - N/A   Clear
11:55 PM 41.0 °F 37.1 °F 33.1 °F 73% 29.63 in 10.0 mi NE 5.8 mph - N/A   Clear